Other Public Products
Issued by NWS Grand Forks, ND

Home | Current Version | Previous Version | Graphics & Text | Print | Product List | Glossary On
Versions: 1 2 3 4 5 6 7 8 9 10 11 12 13 14 15 16 17 18 19 20 21 22 23 24 25 26 27 28 29 30 31 32 33 34 35 36 37 38 39 40 41 42 43 44 45 46 47 48 49 50
000
FPUS83 KFGF 222210
OPUFGF
PRAIRIE TO PINES WEATHER ROUNDUP
NATIONAL WEATHER SERVICE EASTERN NORTH DAKOTA/GRAND FORKS ND
500 PM CDT FRI AUG 22 2014

 **SATELLITE DATA USED TO AUGMENT SKY COVER AT AUTOMATED STATIONS**
 *****  WEATHER ACROSS EASTERN NORTH DAKOTA  *****

CITY           SKY/WX    TMP DP  RH WIND       PRES   REMARKS
GRAND FORKS    CLOUDY    72  63  73 N16       30.03R
GRAND FORKS AF CLOUDY    70  66  88 NE9       30.05R
GRAND CITY NWS   N/A     64 N/A N/A N2          N/A
BUXTON         NOT AVBL
DEVILS LAKE    CLOUDY    70  57  64 NE10      30.06S
FARGO          CLOUDY    72  66  81 N10       30.02R
WAHPETON ARPT  CLOUDY    75  64  69 N10       30.00R
$$

 *****  WEATHER ACROSS CENTRAL AND WESTERN NORTH DAKOTA  *****

CITY           SKY/WX    TMP DP  RH WIND       PRES   REMARKS
JAMESTOWN      PTSUNNY   76  65  68 NE10      30.04R
BISMARCK       CLOUDY    72  64  76 E13       30.05R
MINOT          CLOUDY    64  60  87 NE8       30.10S
MINOT AFB      DRIZZLE   66  59  77 NE9       30.10S
GARRISON         N/A     66  61  84 NE9       30.09R
WILLISTON      CLOUDY    67  55  65 E14       30.11S
DICKINSON      CLOUDY    69  61  75 NE8       30.06S
HETTINGER      CLOUDY    72  58  61 E10       30.06F
$$

 *****  OTHER OBSERVATIONS NORTHEAST NORTH DAKOTA  *****

CITY           SKY/WX    TMP DP  RH WIND       PRES   REMARKS
WALHALLA         N/A     68  63  83 N13       30.08R
LANGDON        CLOUDY    66  59  77 N15       30.09S
CAVALIER       CLOUDY    68  61  77 N13G20    30.06R
GRAFTON        CLOUDY    72  63  73 N10       30.05R
CANDO          CLOUDY    66  61  82 N12       30.10R
FORT TOTTEN    NOT AVBL
ROLLA          CLOUDY    64  63  94 NE9       30.13R
RUGBY          CLOUDY    64  61  88 NE8       30.10S
 ***** THE ABOVE OBSERVATIONS ARE NON NWS ARE NOT QUALITY
        CONTROLLED AND MAY MIS-REPORT RAIN FOR SNOW...
$$

 *****  OTHER OBSERVATIONS SOUTHEAST NORTH DAKOTA *****

CITY           SKY/WX    TMP DP  RH WIND       PRES   REMARKS
COOPERSTOWN    NOT AVBL
VALLEY CITY    FAIR      73  68  83 N12       30.04R
OAKES          NOT AVBL
GWINNER        CLEAR     79  68  69 N8        30.02S
SHEYENNE NWR     N/A     76  67  74 N7        29.95
BUFFALO        NOT AVBL
WYNDMERE       NOT AVBL
 ***** THE ABOVE OBSERVATIONS ARE NON NWS ARE NOT QUALITY
       CONTROLLED AND MAY MIS-REPORT RAIN FOR SNOW...
$$

  *****  WEATHER ACROSS NORTHERN MINNESOTA  *****

CITY           SKY/WX    TMP DP  RH WIND       PRES   REMARKS
FLAG ISLAND    LGT RAIN  70  63  78 CALM      30.03R
WARROAD        LGT RAIN  70  66  88 NE5       30.04R
ROSEAU         PTSUNNY   70  63  78 NE5       30.03S
HALLOCK        CLOUDY    72  64  78 N12       30.04R
THF RVR FALLS  CLOUDY    72  66  83 NW10      30.02R
HALSTAD          N/A     71  66  85 N6          N/A
FOSSTON        CLOUDY    72  66  83 NW7       30.02R
BAUDETTE       CLOUDY    72  67  84 N8        30.02R
WASKISH        CLOUDY    75  70  83 CALM      30.01R
CROOKSTON      CLOUDY    72  66  83 N10       30.03R
$$
  *****  WEATHER ACROSS CENTRAL AND WEST MINNESOTA  *****

CITY           SKY/WX    TMP DP  RH WIND       PRES   REMARKS
BEMIDJI        DRIZZLE   76  66  70 E6        29.99S
PARK RAPIDS    LGT RAIN  73  68  84 N12       30.00R
WADENA         PTSUNNY   77  68  73 CALM      30.00R
DETROIT LAKES  PTSUNNY   73  66  78 NW12      30.04R
MOORHEAD       PTSUNNY   73  72  94 N9        30.02S
FERGUS FALLS   CLOUDY    75  66  73 NW12      29.98S
ELBOW LAKE     FAIR      77  69  75 NW9       29.99S
MORRIS MN      MOSUNNY   84  66  54 N3        29.97S
STAPLES        MOSUNNY   77  64  65 CALM      29.99S
WHEATON        PTSUNNY   75  68  78 NW6       30.00S
$$
  *****  WEATHER ELSEWHERE ACROSS MINNESOTA  *****

CITY           SKY/WX    TMP DP  RH WIND       PRES   REMARKS
DULUTH         CLOUDY    66  61  84 SE5       30.02R
INTRNTL FALLS  CLOUDY    73  65  75 NE7       30.02R
ELY            CLOUDY    72  64  78 NE3       30.02S
CLOQUET        CLOUDY    66  63  88 CALM      30.02R
BRAINERD       PTSUNNY   77  66  68 CALM      30.00R
HIBBING        CLOUDY    75  66  73 CALM      30.01R
ALEXANDRIA     MOSUNNY   81  66  60 NW7       30.00S
SAINT CLOUD    CLOUDY    79  68  69 N7        29.99S
MINNEAPOLIS    CLOUDY    78  68  71 NW9       29.97R
$$

  *****  WEATHER ACROSS SOUTH DAKOTA  *****

CITY           SKY/WX    TMP DP  RH WIND       PRES   REMARKS
SIOUX FALLS    PTSUNNY   85  68  56 E6        29.98R
BROOKINGS      NOT AVBL
WATERTOWN      PTSUNNY   79  67  66 E8        29.99S
HURON          CLOUDY    82  68  62 N16       29.96S
SISSETON         N/A     77  70  79 N6        29.98S
ABERDEEN       PTSUNNY   76  67  73 E6        30.01R
MITCHELL       CLOUDY    83  70  64 CALM      29.96S
PIERRE         PTSUNNY   79  65  62 E17       29.97S
MOBRIDGE       PTSUNNY   74  65  73 N9        30.01R
RAPID CITY     CLOUDY    75  60  59 E6        30.03F
$$

  *****  SOME WEATHER IN NEARBY STATES *****

CITY           SKY/WX    TMP DP  RH WIND       PRES   REMARKS
GLASGOW MT     CLOUDY    67  55  65 E17       30.09S
GREAT FALLS MT CLOUDY    57  52  83 N9        30.12S
CHEYENNE WY      N/A     70  52  52 S15G28    30.12F
SCOTTSBLUFF NE LGT RAIN  73  62  68 E17       30.03F
OMAHA NE       TSTM      78  74  87 S13G21    29.92S
DES MOINES IA  PTSUNNY   88  77  69 S7        29.90F HX 100
DAVENPORT IA   MOSUNNY   85  74  69 W6        29.93S HX  92
CHICAGO IL     PTSUNNY   86  70  58 SW5       29.92S HX  90
EAU CLAIRE WI  MOSUNNY   85  71  63 W8        29.92F HX  90
LA CROSSE WI   MOSUNNY   85  74  69 SE3       29.91S HX  92
$$

  *****  SOME NATIONAL WEATHER *****

CITY           SKY/WX    TMP DP  RH WIND       PRES   REMARKS
LA GUARDIA NY  CLOUDY    68  61  78 VRB5      30.03S
RALEIGH NC     PTSUNNY   83  73  72 SW3       29.97F
ATLANTA GA     MOSUNNY   92  70  48 N6        30.03F HX  97
NEW ORLEANS LA MOSUNNY   94  63  35 CALM      30.03F HX  95
OKLAHOMA CITY  MOSUNNY   99  62  29 S15G24    29.92F HX 100
ALBUQUERQUE NM PTSUNNY   69  56  62 N3        30.17F
SALT LAKE CITY CLOUDY    70  57  63 N18       29.90F
LOS ANGELES CA MOSUNNY   75  63  66 W12       29.95F
BOISE ID       MOSUNNY   79  32  18 NW10G18   29.87F
SEATTLE WA     MOSUNNY   74  53  48 NW14      30.07S
$$

*** WEATHER ACROSS MANITOBA...SASKATCHEWAN AND ONTARIO ***
                ***ONTARIO***

CITY           SKY/WX    TMP DP  RH WIND       PRES   REMARKS
GERALDTON      PTSUNNY   77  61  57 CALM      30.04R
THUNDER BAY    PTSUNNY   70  63  78 E7        30.03R
SIOUX LOOKOUT  CLOUDY    73  61  64 CALM      30.04R
TORONTO        MOSUNNY   75  64  69 SE8       29.98S
BIG TROUT LK   SUNNY     66  57  72 N8G18     30.07R
PICKLE LAKE    CLOUDY    75  57  53 S3        30.04R
DRYDEN         CLOUDY    72  63  73 CALM      30.05R
KENORA         CLOUDY    72  64  78 SW5       30.05R
$$
                *** MANITOBA***

CITY           SKY/WX    TMP DP  RH WIND       PRES   REMARKS
BRANDON        CLOUDY    64  57  77 N9        30.14R
DAUPHIN        LGT RAIN  61  57  88 N14       30.18R
ISLAND LAKE    CLOUDY    54  52  94 NE10G18   30.19
PILOT MOUND      N/A     64  57  77 N8          N/A
THE PAS        PTSUNNY   64  50  59 NE9G17    30.25R
THOMPSON       PTSUNNY   59  48  67 N12G18    30.27R
WINNIPEG       CLOUDY    66  59  77 N10G17    30.08R
LYNN LAKE      CLOUDY    55  45  67 MISG      30.35R
GILLAM         PTSUNNY   54  46  76 NE15G21   30.28R
$$
                ***SASKATCHEWAN***

CITY           SKY/WX    TMP DP  RH WIND       PRES   REMARKS
ESTEVAN        CLOUDY    66  54  63 NE5       30.15R
KINDERSLEY     NOT AVBL
LLOYDMINSTER   PTSUNNY   57  37  47 N8        30.33S
PRINCE ALBERT  PTSUNNY   63  54  72 N5        30.26S
REGINA         PTSUNNY   66  52  59 NE14G20   30.18R
YORKTON        CLOUDY    63  50  63 N14G20    30.21R



USA.gov is the U.S. government's official web portal to all federal, state and local government web resources and services.